Time,TemperatureF,DewpointF,PressureIn,WindDirection,WindDirectionDegrees,WindSpeedMPH,WindSpeedGustMPH,Humidity,HourlyPrecipIn,Conditions,Clouds,dailyrainin,SoftwareType,DateUTC
2013-05-26 00:03:00,45.0,41.0,30.29,ENE,57,0.0,0.0,85,0.00,,,0.00,,2013-05-26 04:03:00,
2013-05-26 00:12:00,45.0,41.0,30.29,ENE,57,0.0,0.0,85,0.00,,,0.00,,2013-05-26 04:12:00,
2013-05-26 00:23:00,44.0,40.0,30.28,ENE,57,0.0,0.0,86,0.00,,,0.00,,2013-05-26 04:23:00,
2013-05-26 00:33:00,43.0,39.0,30.28,ENE,57,0.0,0.0,87,0.00,,,0.00,,2013-05-26 04:33:00,
2013-05-26 00:42:00,43.0,39.0,30.28,ENE,57,0.0,0.0,87,0.00,,,0.00,,2013-05-26 04:42:00,
2013-05-26 00:52:00,43.0,40.0,30.28,ENE,57,0.0,0.0,88,0.00,,,0.00,,2013-05-26 04:52:00,
2013-05-26 01:02:00,42.0,39.0,30.28,ENE,57,0.0,0.0,89,0.00,,,0.00,,2013-05-26 05:02:00,
2013-05-26 01:12:00,42.0,39.0,30.28,ENE,57,0.0,0.0,89,0.00,,,0.00,,2013-05-26 05:12:00,
2013-05-26 01:22:00,42.0,39.0,30.28,ENE,57,0.0,0.0,90,0.00,,,0.00,,2013-05-26 05:22:00,
2013-05-26 01:32:00,41.0,38.0,30.28,ENE,58,0.0,0.0,90,0.00,,,0.00,,2013-05-26 05:32:00,
2013-05-26 01:42:00,41.0,38.0,30.28,ENE,58,0.0,0.0,90,0.00,,,0.00,,2013-05-26 05:42:00,
2013-05-26 01:52:00,41.0,38.0,30.28,ENE,58,0.0,0.0,90,0.00,,,0.00,,2013-05-26 05:52:00,
2013-05-26 02:01:00,40.0,38.0,30.27,ENE,57,0.0,0.0,91,0.00,,,0.00,,2013-05-26 06:01:00,
2013-05-26 02:12:00,40.0,38.0,30.27,ENE,57,0.0,0.0,91,0.00,,,0.00,,2013-05-26 06:12:00,
2013-05-26 02:22:00,40.0,38.0,30.27,ENE,57,0.0,0.0,91,0.00,,,0.00,,2013-05-26 06:22:00,
2013-05-26 02:32:00,40.0,38.0,30.27,ENE,57,0.0,0.0,91,0.00,,,0.00,,2013-05-26 06:32:00,
2013-05-26 02:42:00,40.0,38.0,30.27,ENE,57,0.0,0.0,91,0.00,,,0.00,,2013-05-26 06:42:00,
2013-05-26 02:52:00,40.0,38.0,30.27,ENE,57,0.0,0.0,91,0.00,,,0.00,,2013-05-26 06:52:00,
2013-05-26 03:01:00,39.0,37.0,30.26,ENE,57,0.0,0.0,92,0.00,,,0.00,,2013-05-26 07:01:00,
2013-05-26 03:11:00,39.0,37.0,30.26,ENE,57,0.0,0.0,92,0.00,,,0.00,,2013-05-26 07:11:00,
2013-05-26 03:22:00,39.0,37.0,30.26,ENE,57,0.0,0.0,92,0.00,,,0.00,,2013-05-26 07:22:00,
2013-05-26 03:32:00,39.0,37.0,30.26,ENE,58,0.0,0.0,92,0.00,,,0.00,,2013-05-26 07:32:00,
2013-05-26 03:42:00,39.0,37.0,30.26,ENE,58,0.0,0.0,92,0.00,,,0.00,,2013-05-26 07:42:00,
2013-05-26 03:52:00,39.0,37.0,30.26,ENE,58,0.0,0.0,92,0.00,,,0.00,,2013-05-26 07:52:00,
2013-05-26 04:01:00,38.0,36.0,30.26,ENE,58,0.0,0.0,93,0.00,,,0.00,,2013-05-26 08:01:00,
2013-05-26 04:12:00,38.0,36.0,30.26,ENE,58,0.0,0.0,93,0.00,,,0.00,,2013-05-26 08:12:00,
2013-05-26 04:21:00,38.0,36.0,30.26,ENE,57,0.0,0.0,93,0.00,,,0.00,,2013-05-26 08:21:00,
2013-05-26 04:32:00,38.0,36.0,30.26,ENE,58,0.0,0.0,93,0.00,,,0.00,,2013-05-26 08:32:00,
2013-05-26 04:42:00,38.0,36.0,30.26,ENE,58,0.0,0.0,93,0.00,,,0.00,,2013-05-26 08:42:00,
2013-05-26 04:53:00,38.0,36.0,30.26,ENE,57,0.0,0.0,93,0.00,,,0.00,,2013-05-26 08:53:00,
2013-05-26 05:01:00,38.0,36.0,30.26,ENE,57,0.0,0.0,93,0.00,,,0.00,,2013-05-26 09:01:00,
2013-05-26 05:11:00,38.0,36.0,30.25,ENE,57,0.0,0.0,93,0.00,,,0.00,,2013-05-26 09:11:00,
2013-05-26 05:21:00,38.0,36.0,30.25,ENE,57,0.0,0.0,93,0.00,,,0.00,,2013-05-26 09:21:00,
2013-05-26 05:33:00,38.0,36.0,30.25,ENE,57,0.0,0.0,93,0.00,,,0.00,,2013-05-26 09:33:00,
2013-05-26 05:43:00,38.0,36.0,30.25,ENE,57,0.0,0.0,93,0.00,,,0.00,,2013-05-26 09:43:00,
2013-05-26 05:53:00,37.0,35.0,30.26,ENE,57,0.0,0.0,94,0.00,,,0.00,,2013-05-26 09:53:00,
2013-05-26 06:02:00,37.0,35.0,30.26,ENE,57,0.0,0.0,94,0.00,,,0.00,,2013-05-26 10:02:00,
2013-05-26 06:12:00,37.0,35.0,30.26,ENE,57,0.0,0.0,94,0.00,,,0.00,,2013-05-26 10:12:00,
2013-05-26 06:23:00,37.0,35.0,30.27,ENE,57,0.0,0.0,94,0.00,,,0.00,,2013-05-26 10:23:00,
2013-05-26 06:33:00,37.0,35.0,30.27,ENE,57,0.0,0.0,94,0.00,,,0.00,,2013-05-26 10:33:00,
2013-05-26 06:42:00,37.0,35.0,30.27,ENE,57,0.0,0.0,94,0.00,,,0.00,,2013-05-26 10:42:00,
2013-05-26 06:52:00,37.0,35.0,30.27,ENE,57,0.0,0.0,94,0.00,,,0.00,,2013-05-26 10:52:00,
2013-05-26 07:03:00,37.0,35.0,30.28,ENE,57,0.0,0.0,94,0.00,,,0.00,,2013-05-26 11:03:00,
2013-05-26 07:11:00,37.0,35.0,30.28,ENE,57,0.0,0.0,94,0.00,,,0.00,,2013-05-26 11:11:00,
2013-05-26 07:22:00,38.0,36.0,30.27,ENE,58,0.0,0.0,94,0.00,,,0.00,,2013-05-26 11:22:00,
2013-05-26 07:32:00,39.0,37.0,30.28,ENE,57,0.0,0.0,94,0.00,,,0.00,,2013-05-26 11:32:00,
2013-05-26 07:42:00,39.0,37.0,30.28,ENE,57,0.0,0.0,94,0.00,,,0.00,,2013-05-26 11:42:00,
2013-05-26 07:52:00,40.0,39.0,30.28,ENE,57,0.0,0.0,95,0.00,,,0.00,,2013-05-26 11:52:00,
2013-05-26 08:02:00,42.0,41.0,30.28,ENE,57,0.0,0.0,95,0.00,,,0.00,,2013-05-26 12:02:00,
2013-05-26 08:12:00,42.0,41.0,30.28,ENE,57,0.0,0.0,95,0.00,,,0.00,,2013-05-26 12:12:00,
2013-05-26 08:21:00,44.0,43.0,30.28,ENE,57,0.0,0.0,95,0.00,,,0.00,,2013-05-26 12:21:00,
2013-05-26 08:32:00,46.0,45.0,30.29,ENE,57,0.0,0.0,96,0.00,,,0.00,,2013-05-26 12:32:00,
2013-05-26 08:42:00,46.0,45.0,30.29,ENE,57,0.0,0.0,96,0.00,,,0.00,,2013-05-26 12:42:00,
2013-05-26 08:52:00,49.0,47.0,30.28,ENE,57,0.0,0.0,94,0.00,,,0.00,,2013-05-26 12:52:00,
2013-05-26 09:02:00,52.0,46.0,30.29,NNE,22,0.0,2.0,79,0.00,,,0.00,,2013-05-26 13:02:00,
2013-05-26 09:11:00,52.0,46.0,30.29,NNE,22,0.0,2.0,79,0.00,,,0.00,,2013-05-26 13:11:00,
2013-05-26 09:21:00,55.0,45.0,30.30,NNE,21,0.0,0.0,70,0.00,,,0.00,,2013-05-26 13:21:00,
2013-05-26 09:32:00,56.0,44.0,30.30,ENE,69,0.0,4.0,64,0.00,,,0.00,,2013-05-26 13:32:00,
2013-05-26 09:42:00,56.0,44.0,30.30,ENE,69,0.0,4.0,64,0.00,,,0.00,,2013-05-26 13:42:00,
2013-05-26 09:52:00,58.0,43.0,30.30,NNE,26,0.0,3.0,58,0.00,,,0.00,,2013-05-26 13:52:00,
2013-05-26 10:02:00,59.0,42.0,30.29,NE,48,0.0,3.0,53,0.00,,,0.00,,2013-05-26 14:02:00,
2013-05-26 10:11:00,59.0,42.0,30.29,NE,48,0.0,3.0,53,0.00,,,0.00,,2013-05-26 14:11:00,
2013-05-26 10:21:00,60.0,44.0,30.28,NE,46,0.0,3.0,55,0.00,,,0.00,,2013-05-26 14:21:00,
2013-05-26 10:32:00,60.0,43.0,30.28,NNE,19,1.0,4.0,53,0.00,,,0.00,,2013-05-26 14:32:00,
2013-05-26 10:42:00,62.0,44.0,30.27,ESE,111,0.0,1.0,52,0.00,,,0.00,,2013-05-26 14:42:00,
2013-05-26 10:52:00,62.0,44.0,30.27,ESE,111,0.0,1.0,52,0.00,,,0.00,,2013-05-26 14:52:00,
2013-05-26 11:01:00,63.0,43.0,30.28,SW,233,3.0,4.0,48,0.00,,,0.00,,2013-05-26 15:01:00,
2013-05-26 11:12:00,63.0,43.0,30.28,SW,233,3.0,4.0,48,0.00,,,0.00,,2013-05-26 15:12:00,
2013-05-26 11:22:00,63.0,43.0,30.28,SW,233,3.0,4.0,48,0.00,,,0.00,,2013-05-26 15:22:00,
2013-05-26 11:33:00,63.0,43.0,30.28,SW,233,3.0,4.0,48,0.00,,,0.00,,2013-05-26 15:33:00,
2013-05-26 11:43:00,63.0,43.0,30.28,SW,233,3.0,4.0,48,0.00,,,0.00,,2013-05-26 15:43:00,
2013-05-26 11:53:00,64.0,42.0,30.27,NNE,22,0.0,3.0,44,0.00,,,0.00,,2013-05-26 15:53:00,
2013-05-26 12:03:00,65.0,44.0,30.26,NE,50,0.0,1.0,47,0.00,,,0.00,,2013-05-26 16:03:00,
2013-05-26 12:12:00,65.0,44.0,30.26,NE,50,0.0,1.0,47,0.00,,,0.00,,2013-05-26 16:12:00,
2013-05-26 12:23:00,65.0,44.0,30.26,NE,50,0.0,1.0,47,0.00,,,0.00,,2013-05-26 16:23:00,
2013-05-26 12:33:00,66.0,45.0,30.27,SE,129,4.0,6.0,47,0.00,,,0.00,,2013-05-26 16:33:00,
2013-05-26 12:42:00,66.0,45.0,30.27,SE,129,4.0,6.0,47,0.00,,,0.00,,2013-05-26 16:42:00,
2013-05-26 12:52:00,66.0,46.0,30.27,ENE,73,4.0,4.0,48,0.00,,,0.00,,2013-05-26 16:52:00,
2013-05-26 13:02:00,66.0,42.0,30.27,ESE,105,0.0,5.0,42,0.00,,,0.00,,2013-05-26 17:02:00,
2013-05-26 13:11:00,66.0,42.0,30.27,ESE,105,0.0,5.0,42,0.00,,,0.00,,2013-05-26 17:11:00,
2013-05-26 13:22:00,66.0,46.0,30.27,ESE,103,3.0,3.0,48,0.00,,,0.00,,2013-05-26 17:22:00,
2013-05-26 13:32:00,66.0,46.0,30.27,ESE,103,3.0,3.0,48,0.00,,,0.00,,2013-05-26 17:32:00,
2013-05-26 13:42:00,66.0,46.0,30.27,ESE,103,3.0,3.0,48,0.00,,,0.00,,2013-05-26 17:42:00,
2013-05-26 13:52:00,66.0,44.0,30.26,NNE,29,0.0,4.0,45,0.00,,,0.00,,2013-05-26 17:52:00,
2013-05-26 14:01:00,66.0,46.0,30.26,NE,46,0.0,4.0,48,0.00,,,0.00,,2013-05-26 18:01:00,
2013-05-26 14:12:00,66.0,46.0,30.26,NE,46,0.0,4.0,48,0.00,,,0.00,,2013-05-26 18:12:00,
2013-05-26 14:21:00,66.0,45.0,30.25,NE,37,2.0,4.0,46,0.00,,,0.00,,2013-05-26 18:21:00,
2013-05-26 14:32:00,67.0,46.0,30.25,NNE,14,0.0,4.0,46,0.00,,,0.00,,2013-05-26 18:32:00,
2013-05-26 14:42:00,67.0,46.0,30.25,NNE,14,0.0,4.0,46,0.00,,,0.00,,2013-05-26 18:42:00,
2013-05-26 14:52:00,66.0,45.0,30.25,East,83,1.0,6.0,46,0.00,,,0.00,,2013-05-26 18:52:00,
2013-05-26 15:01:00,65.0,44.0,30.25,NE,44,0.0,6.0,46,0.00,,,0.00,,2013-05-26 19:01:00,
2013-05-26 15:11:00,65.0,44.0,30.25,NE,44,0.0,6.0,46,0.00,,,0.00,,2013-05-26 19:11:00,
2013-05-26 15:22:00,66.0,45.0,30.25,East,98,0.0,6.0,47,0.00,,,0.00,,2013-05-26 19:22:00,
2013-05-26 15:32:00,67.0,45.0,30.25,East,87,0.0,3.0,45,0.00,,,0.00,,2013-05-26 19:32:00,
2013-05-26 15:42:00,67.0,45.0,30.25,East,87,0.0,3.0,45,0.00,,,0.00,,2013-05-26 19:42:00,
2013-05-26 15:52:00,67.0,44.0,30.24,East,94,0.0,1.0,44,0.00,,,0.00,,2013-05-26 19:52:00,
2013-05-26 16:02:00,67.0,44.0,30.24,East,94,0.0,1.0,44,0.00,,,0.00,,2013-05-26 20:02:00,
2013-05-26 16:11:00,67.0,44.0,30.24,East,94,0.0,1.0,44,0.00,,,0.00,,2013-05-26 20:11:00,
2013-05-26 16:22:00,67.0,46.0,30.24,East,88,0.0,5.0,47,0.00,,,0.00,,2013-05-26 20:22:00,
2013-05-26 16:32:00,67.0,47.0,30.23,East,88,0.0,0.0,48,0.00,,,0.00,,2013-05-26 20:32:00,
2013-05-26 16:42:00,67.0,47.0,30.23,East,88,0.0,0.0,48,0.00,,,0.00,,2013-05-26 20:42:00,
2013-05-26 16:52:00,68.0,45.0,30.23,SE,131,1.0,3.0,44,0.00,,,0.00,,2013-05-26 20:52:00,
2013-05-26 17:02:00,68.0,45.0,30.23,NE,52,0.0,3.0,43,0.00,,,0.00,,2013-05-26 21:02:00,
2013-05-26 17:11:00,68.0,45.0,30.23,NE,52,0.0,3.0,43,0.00,,,0.00,,2013-05-26 21:11:00,
2013-05-26 17:22:00,67.0,44.0,30.22,NNE,30,1.0,2.0,43,0.00,,,0.00,,2013-05-26 21:22:00,
2013-05-26 17:33:00,66.0,43.0,30.22,East,90,4.0,4.0,44,0.00,,,0.00,,2013-05-26 21:33:00,
2013-05-26 17:43:00,66.0,43.0,30.22,East,90,4.0,4.0,44,0.00,,,0.00,,2013-05-26 21:43:00,
2013-05-26 17:53:00,66.0,43.0,30.22,ESE,109,0.0,4.0,44,0.00,,,0.00,,2013-05-26 21:53:00,
2013-05-26 18:03:00,66.0,44.0,30.22,ESE,104,0.0,4.0,45,0.00,,,0.00,,2013-05-26 22:03:00,
2013-05-26 18:12:00,66.0,44.0,30.22,ESE,104,0.0,4.0,45,0.00,,,0.00,,2013-05-26 22:12:00,
2013-05-26 18:23:00,66.0,44.0,30.22,ESE,104,0.0,4.0,45,0.00,,,0.00,,2013-05-26 22:23:00,
2013-05-26 18:33:00,65.0,45.0,30.21,NE,38,0.0,2.0,48,0.00,,,0.00,,2013-05-26 22:33:00,
2013-05-26 18:42:00,64.0,45.0,30.22,ENE,68,0.0,0.0,50,0.00,,,0.00,,2013-05-26 22:42:00,
2013-05-26 18:53:00,64.0,45.0,30.22,ENE,68,0.0,0.0,50,0.00,,,0.00,,2013-05-26 22:53:00,
2013-05-26 19:02:00,64.0,45.0,30.21,ENE,78,1.0,3.0,51,0.00,,,0.00,,2013-05-26 23:02:00,
2013-05-26 19:12:00,64.0,45.0,30.21,ENE,78,1.0,3.0,51,0.00,,,0.00,,2013-05-26 23:12:00,
2013-05-26 19:22:00,64.0,45.0,30.21,East,96,0.0,1.0,50,0.00,,,0.00,,2013-05-26 23:22:00,
2013-05-26 19:32:00,63.0,44.0,30.21,SE,139,0.0,5.0,50,0.00,,,0.00,,2013-05-26 23:32:00,
2013-05-26 19:43:00,63.0,44.0,30.21,SE,139,0.0,5.0,50,0.00,,,0.00,,2013-05-26 23:43:00,
2013-05-26 19:52:00,63.0,46.0,30.21,ESE,102,0.0,0.0,53,0.00,,,0.00,,2013-05-26 23:52:00,
2013-05-26 20:02:00,63.0,46.0,30.20,East,94,0.0,3.0,54,0.00,,,0.00,,2013-05-27 00:02:00,
2013-05-26 20:11:00,63.0,46.0,30.20,East,94,0.0,3.0,54,0.00,,,0.00,,2013-05-27 00:11:00,
2013-05-26 20:22:00,62.0,46.0,30.20,East,88,0.0,2.0,55,0.00,,,0.00,,2013-05-27 00:22:00,
2013-05-26 20:32:00,61.0,47.0,30.20,East,93,0.0,2.0,59,0.00,,,0.00,,2013-05-27 00:32:00,
2013-05-26 20:42:00,61.0,47.0,30.20,East,93,0.0,2.0,59,0.00,,,0.00,,2013-05-27 00:42:00,
2013-05-26 20:52:00,60.0,46.0,30.20,ENE,76,0.0,1.0,59,0.00,,,0.00,,2013-05-27 00:52:00,
2013-05-26 21:01:00,58.0,45.0,30.20,ENE,58,0.0,0.0,62,0.00,,,0.00,,2013-05-27 01:01:00,
2013-05-26 21:11:00,58.0,45.0,30.20,ENE,58,0.0,0.0,62,0.00,,,0.00,,2013-05-27 01:11:00,
2013-05-26 21:22:00,58.0,45.0,30.20,NE,42,0.0,2.0,62,0.00,,,0.00,,2013-05-27 01:22:00,
2013-05-26 21:32:00,56.0,44.0,30.20,NE,42,0.0,0.0,65,0.00,,,0.00,,2013-05-27 01:32:00,
2013-05-26 21:42:00,55.0,44.0,30.20,NE,42,0.0,0.0,67,0.00,,,0.00,,2013-05-27 01:42:00,
2013-05-26 21:52:00,55.0,44.0,30.20,NE,42,0.0,0.0,67,0.00,,,0.00,,2013-05-27 01:52:00,
2013-05-26 22:02:00,55.0,45.0,30.21,NE,42,0.0,0.0,68,0.00,,,0.00,,2013-05-27 02:02:00,
2013-05-26 22:11:00,55.0,45.0,30.21,NE,42,0.0,0.0,68,0.00,,,0.00,,2013-05-27 02:11:00,
2013-05-26 22:22:00,54.0,44.0,30.21,NE,42,0.0,0.0,70,0.00,,,0.00,,2013-05-27 02:22:00,
2013-05-26 22:32:00,54.0,44.0,30.21,NE,42,0.0,0.0,70,0.00,,,0.00,,2013-05-27 02:32:00,
2013-05-26 22:42:00,54.0,44.0,30.21,NE,42,0.0,0.0,70,0.00,,,0.00,,2013-05-27 02:42:00,
2013-05-26 22:52:00,52.0,45.0,30.21,NE,41,0.0,0.0,77,0.00,,,0.00,,2013-05-27 02:52:00,
2013-05-26 23:02:00,52.0,45.0,30.21,NE,41,0.0,0.0,77,0.00,,,0.00,,2013-05-27 03:02:00,
2013-05-26 23:11:00,52.0,45.0,30.21,NE,41,0.0,0.0,77,0.00,,,0.00,,2013-05-27 03:11:00,
2013-05-26 23:21:00,50.0,44.0,30.21,NE,42,0.0,0.0,80,0.00,,,0.00,,2013-05-27 03:21:00,
2013-05-26 23:33:00,50.0,45.0,30.21,NE,42,0.0,0.0,82,0.00,,,0.00,,2013-05-27 03:33:00,
2013-05-26 23:43:00,50.0,45.0,30.21,NE,42,0.0,0.0,82,0.00,,,0.00,,2013-05-27 03:43:00,
2013-05-26 23:53:00,49.0,44.0,30.21,NE,42,0.0,0.0,82,0.00,,,0.00,,2013-05-27 03:53:00,